Stephenville, TX

8:18 AM CDT on April 20, 2018 (GMT -0500)
Clark Municipal

Weather History for KSEP - April, 2014

Change the Weather History Date:

Wednesday, April 30, 2014

  Actual Average Record
Temperature  
Mean Temperature 58 °F -  
Max Temperature 67 °F 80 °F 93 °F (1947)
Min Temperature 46 °F 56 °F 44 °F (2017)
Degree Days  
Heating Degree Days 8    
Growing Degree Days 8 (Base 50)    
Moisture  
Dew Point 30 °F    
Average Humidity 37    
Maximum Humidity 56    
Minimum Humidity 20    
Precipitation  
Precipitation 0.00 in - - ()
Sea Level Pressure  
Sea Level Pressure 30.15 in    
Wind  
Wind Speed 9 mph (NNW)    
Max Wind Speed 25 mph    
Max Gust Speed 33 mph    
Visibility 10 miles    
Events      
Averages and records for this station are not official NWS values.
T = Trace of Precipitation, MM = Missing Value Source: NWS Daily Summary

Daily Weather History Graph

Daily Weather History Graph

Search for Another Location

Airport or City:

Astronomy

Apr. 30, 2014 Rise Set
Actual Time 6:47 AM CDT 8:12 PM CDT
Civil Twilight 6:21 AM CDT 8:38 PM CDT
Nautical Twilight 5:50 AM CDT 9:10 PM CDT
Astronomical Twilight 5:18 AM CDT 9:42 PM CDT
Moon 7:51 AM CDT (4/30) 9:50 PM CDT (4/30)
Length of Visible Light 14h 17m
Length of Day
13h 25m
New Moon, 2% of the Moon is Illuminated
Apr 30
New Moon
May 6
First Quarter
May 14
Full
May 21
Last Quarter
May 28
New

Hourly Weather History & Observations

Time (CDT) Temp. Dew Point Humidity Pressure Visibility Wind Dir Wind Speed Gust Speed Precip Events Conditions
12:15 AM 56.8 °F 32.0 °F 39% 30.04 in 10.0 mi NW 5.8 mph - N/A   Overcast
12:35 AM 56.5 °F 32.0 °F 39% 30.04 in 10.0 mi NW 4.6 mph - N/A   Overcast
12:55 AM 55.6 °F 32.2 °F 41% 30.05 in 10.0 mi NW 3.5 mph - N/A   Overcast
1:15 AM 55.4 °F 32.0 °F 41% 30.05 in 10.0 mi NW 3.5 mph - N/A   Overcast
1:35 AM 54.9 °F 32.0 °F 42% 30.06 in 10.0 mi NW 3.5 mph - N/A   Overcast
1:55 AM 54.5 °F 32.0 °F 42% 30.06 in 10.0 mi NW 3.5 mph - N/A   Scattered Clouds
2:15 AM 54.0 °F 32.0 °F 43% 30.07 in 10.0 mi NW 4.6 mph - N/A   Clear
2:35 AM 53.1 °F 32.0 °F 45% 30.07 in 10.0 mi WNW 3.5 mph - N/A   Clear
2:55 AM 52.9 °F 32.0 °F 45% 30.08 in 10.0 mi NW 4.6 mph - N/A   Clear
3:15 AM 52.2 °F 32.0 °F 46% 30.09 in 10.0 mi WNW 3.5 mph - N/A   Clear
3:35 AM 52.0 °F 31.6 °F 46% 30.09 in 10.0 mi NW 4.6 mph - N/A   Clear
3:55 AM 51.3 °F 31.8 °F 47% 30.11 in 10.0 mi NW 6.9 mph - N/A   Clear
4:15 AM 52.2 °F 30.4 °F 43% 30.12 in 10.0 mi NNW 12.7 mph 16.1 mph N/A   Clear
4:35 AM 51.1 °F 30.7 °F 46% 30.12 in 10.0 mi NNW 6.9 mph - N/A   Clear
4:55 AM 50.9 °F 30.6 °F 46% 30.12 in 10.0 mi NNW 8.1 mph - N/A   Clear
5:15 AM 50.5 °F 30.6 °F 46% 30.13 in 10.0 mi NNW 10.4 mph - N/A   Clear
5:35 AM 50.4 °F 30.7 °F 47% 30.13 in 10.0 mi NNW 11.5 mph - N/A   Clear
5:55 AM 50.2 °F 30.9 °F 48% 30.12 in 10.0 mi NNW 13.8 mph - N/A   Clear
6:15 AM 50.0 °F 30.9 °F 48% 30.13 in 10.0 mi NNW 16.1 mph - N/A   Clear
6:35 AM 49.6 °F 31.1 °F 49% 30.14 in 10.0 mi NNW 16.1 mph 21.9 mph N/A   Clear
6:55 AM 49.3 °F 31.6 °F 51% 30.15 in 10.0 mi NNW 16.1 mph 23.0 mph N/A   Clear
7:15 AM 49.1 °F 32.0 °F 52% 30.16 in 10.0 mi NNW 13.8 mph 18.4 mph N/A   Clear
7:35 AM 49.5 °F 32.2 °F 51% 30.17 in 10.0 mi NNW 11.5 mph 20.7 mph N/A   Clear
7:55 AM 50.0 °F 32.2 °F 50% 30.18 in 10.0 mi North 18.4 mph 23.0 mph N/A   Clear
8:15 AM 50.5 °F 32.4 °F 50% 30.18 in 10.0 mi North 16.1 mph 24.2 mph N/A   Clear
8:35 AM 51.1 °F 32.9 °F 50% 30.19 in 10.0 mi North 25.3 mph 33.4 mph N/A   Clear
8:55 AM 51.6 °F 33.6 °F 50% 30.20 in 10.0 mi NNW 24.2 mph 31.1 mph N/A   Clear
9:15 AM 52.0 °F 32.9 °F 48% 30.21 in 10.0 mi North 21.9 mph 29.9 mph N/A   Clear
9:35 AM 52.3 °F 32.2 °F 46% 30.22 in 10.0 mi North 19.6 mph 31.1 mph N/A   Clear
9:55 AM 53.6 °F 32.0 °F 44% 30.22 in 10.0 mi North 17.3 mph 27.6 mph N/A   Clear
10:15 AM 54.7 °F 32.9 °F 44% 30.23 in 10.0 mi NNW 20.7 mph 25.3 mph N/A   Clear
10:35 AM 56.3 °F 32.9 °F 41% 30.22 in 10.0 mi North 15.0 mph 23.0 mph N/A   Clear
10:55 AM 57.4 °F 33.3 °F 40% 30.23 in 10.0 mi NNW 18.4 mph 24.2 mph N/A   Clear
11:15 AM 58.1 °F 32.5 °F 38% 30.23 in 10.0 mi NNW 15.0 mph 27.6 mph N/A   Clear
11:35 AM 59.0 °F 32.5 °F 37% 30.22 in 10.0 mi North 19.6 mph 25.3 mph N/A   Clear
11:55 AM 59.9 °F 31.8 °F 35% 30.22 in 10.0 mi North 16.1 mph 25.3 mph N/A   Clear
12:15 PM 60.1 °F 31.8 °F 34% 30.22 in 10.0 mi North 16.1 mph 26.5 mph N/A   Clear
12:35 PM 61.7 °F 31.5 °F 32% 30.21 in 10.0 mi NNW 17.3 mph 23.0 mph N/A   Clear
12:55 PM 62.2 °F 31.6 °F 32% 30.21 in 10.0 mi NNW 17.3 mph 20.7 mph N/A   Clear
1:15 PM 62.6 °F 30.7 °F 30% 30.20 in 10.0 mi NNW 12.7 mph 25.3 mph N/A   Clear
1:35 PM 63.3 °F 30.4 °F 29% 30.19 in 10.0 mi NNW 13.8 mph 28.8 mph N/A   Clear
1:55 PM 64.2 °F 30.6 °F 28% 30.19 in 10.0 mi NNW 17.3 mph 20.7 mph N/A   Clear
2:15 PM 64.4 °F 30.2 °F 28% 30.18 in 10.0 mi NNW 13.8 mph 25.3 mph N/A   Clear
2:35 PM 66.0 °F 30.9 °F 27% 30.17 in 10.0 mi NNW 17.3 mph - N/A   Clear
2:55 PM 65.7 °F 30.0 °F 26% 30.16 in 10.0 mi NNW 13.8 mph 21.9 mph N/A   Clear
3:15 PM 65.8 °F 29.1 °F 25% 30.16 in 10.0 mi NNW 12.7 mph 24.2 mph N/A   Clear
3:35 PM 67.1 °F 29.3 °F 24% 30.15 in 10.0 mi NNW 12.7 mph 21.9 mph N/A   Clear
3:55 PM 66.9 °F 28.6 °F 24% 30.14 in 10.0 mi NNW 15.0 mph 25.3 mph N/A   Clear
4:15 PM 66.4 °F 27.5 °F 23% 30.13 in 10.0 mi North 15.0 mph 20.7 mph N/A   Clear
4:35 PM 67.8 °F 27.1 °F 22% 30.12 in 10.0 mi NNW 15.0 mph 23.0 mph N/A   Clear
4:55 PM 67.3 °F 26.2 °F 21% 30.12 in 10.0 mi North 6.9 mph 21.9 mph N/A   Clear
5:15 PM 67.5 °F 25.2 °F 20% 30.12 in 10.0 mi North 16.1 mph 21.9 mph N/A   Clear
5:35 PM 67.6 °F 24.4 °F 20% 30.12 in 10.0 mi NW 13.8 mph 18.4 mph N/A   Clear
5:55 PM 67.8 °F 24.6 °F 20% 30.12 in 10.0 mi North 12.7 mph 17.3 mph N/A   Clear
6:15 PM 66.7 °F 24.4 °F 20% 30.12 in 10.0 mi NNW 11.5 mph - N/A   Clear
6:35 PM 66.4 °F 23.9 °F 20% 30.12 in 10.0 mi North 12.7 mph - N/A   Clear
6:55 PM 65.7 °F 23.9 °F 21% 30.12 in 10.0 mi NW 6.9 mph 10.4 mph N/A   Clear
7:15 PM 65.3 °F 24.6 °F 21% 30.12 in 10.0 mi North 6.9 mph - N/A   Clear
7:35 PM 64.2 °F 24.6 °F 22% 30.12 in 10.0 mi North 9.2 mph - N/A   Clear
7:55 PM 63.1 °F 25.5 °F 24% 30.13 in 10.0 mi North 5.8 mph - N/A   Clear
8:15 PM 61.7 °F 25.3 °F 25% 30.13 in 10.0 mi North 8.1 mph - N/A   Clear
8:35 PM 59.9 °F 25.7 °F 27% 30.14 in 10.0 mi North 5.8 mph - N/A   Clear
8:55 PM 59.0 °F 26.2 °F 29% 30.14 in 10.0 mi North 4.6 mph - N/A   Clear
9:15 PM 58.3 °F 26.4 °F 30% 30.15 in 10.0 mi NNW 3.5 mph - N/A   Clear
9:35 PM 57.4 °F 27.0 °F 31% 30.16 in 10.0 mi Calm Calm - N/A   Clear
9:55 PM 55.9 °F 28.2 °F 35% 30.17 in 10.0 mi Calm Calm - N/A   Clear
10:15 PM 54.9 °F 28.8 °F 37% 30.18 in 10.0 mi NW 3.5 mph - N/A   Clear
10:35 PM 54.5 °F 28.6 °F 37% 30.19 in 10.0 mi NW 3.5 mph - N/A   Clear
10:55 PM 53.6 °F 29.5 °F 40% 30.20 in 10.0 mi Calm Calm - N/A   Clear
11:15 PM 48.7 °F 31.1 °F 51% 30.20 in 10.0 mi Calm Calm - N/A   Clear
11:35 PM 48.4 °F 31.3 °F 52% 30.20 in 10.0 mi Calm Calm - N/A   Clear
11:55 PM 46.6 °F 31.6 °F 56% 30.21 in 10.0 mi Calm Calm - N/A   Clear